Regional Weather Roundup
Issued by NWS Raleigh/Durham, NC

Home | Current Version | Previous Version | Text Only | Print | Product List | Glossary On
Versions: 1 2 3 4 5 6 7 8 9 10 11 12 13 14 15 16 17 18 19 20 21 22 23 24 25 26 27 28 29 30 31 32 33 34 35 36 37 38 39 40 41 42 43 44 45 46 47 48 49 50
000
ASUS42 KRAH 311610
RWRRAH
NORTH CAROLINA WEATHER ROUNDUP
NATIONAL WEATHER SERVICE RALEIGH NC
1200 PM EDT MON AUG 31 2015

NOTE: "FAIR" INDICATES FEW OR NO CLOUDS BELOW 12,000 FEET WITH NO
SIGNIFICANT WEATHER AND/OR OBSTRUCTIONS TO VISIBILITY.

NCZ001-053-055-056-065-067-311700-
WESTERN NORTH CAROLINA

CITY           SKY/WX    TMP DP  RH WIND       PRES   REMARKS
ASHEVILLE      SUNNY     76  62  62 N8        30.21S
JEFFERSON      CLOUDY    70  56  60 N6        30.25S
MORGANTON      SUNNY     81  59  47 NE5       30.20S
HICKORY        SUNNY     79  63  57 CALM      30.15F
RUTHERFORDTON  SUNNY     80  62  53 E5        30.16F
MOUNT AIRY     SUNNY     80  66  61 CALM      30.17S
BOONE          SUNNY     73  55  53 E5        30.25S
$$

NCZ021-022-025-041-071-084-088-311700-
CENTRAL NORTH CAROLINA

CITY           SKY/WX    TMP DP  RH WIND       PRES   REMARKS
CHARLOTTE      MOSUNNY   81  66  60 CALM      30.14S
GREENSBORO     CLOUDY    73  69  87 NE3       30.15S
WINSTON-SALEM  MOSUNNY   76  68  76 VRB3      30.16S
RALEIGH-DURHAM CLOUDY    72  67  84 NE6       30.14R
FORT BRAGG     PTSUNNY   77  73  88 VRB5      30.10S
FAYETTEVILLE   CLOUDY    78  71  79 CALM      30.10S
BURLINGTON     CLOUDY    73  71  93 CALM      30.14F
LAURINBURG     CLOUDY    78  69  73 N6        30.11S
$$

NCZ011-015-027-028-043-044-047-080-103-311700-
NORTHEASTERN NORTH CAROLINA

CITY           SKY/WX    TMP DP  RH WIND       PRES   REMARKS
ROCKY MT-WILSO LGT RAIN  71  70  96 CALM      30.15S FOG
GREENVILLE     HVY RAIN  70  70 100 N6        30.15S
WASHINGTON     RAIN      70  68  95 NE6       30.13F
ELIZABETH CITY RAIN      75  71  87 NW7       30.15S FOG
MANTEO         CLOUDY    79  70  73 N3        30.14R
CAPE HATTERAS  CLOUDY    81  73  76 E7        30.13S
$$

NCZ078-087-090-091-093-098-101-311700-
SOUTHEASTERN NORTH CAROLINA

CITY           SKY/WX    TMP DP  RH WIND       PRES   REMARKS
LUMBERTON      PTSUNNY   80  72  76 NW3       30.09F
GOLDSBORO      PTSUNNY   73  72  97 NE8       30.11F
KINSTON        RAIN      72  70  94 N5        30.15R
KENANSVILLE      N/A     74  73  94 CALM      30.13F
NEW BERN       LGT RAIN  78  74  87 E5        30.12F
CHERRY POINT   LGT RAIN  81  74  79 E7        30.12S
BEAUFORT       HVY RAIN  75  74  96 SE13      30.14R VSB 3/4
JACKSONVILLE   LGT RAIN  77  74  90 NW7       30.11S FOG
WILMINGTON     CLOUDY    77  74  90 CALM      30.10F
$$




USA.gov is the U.S. government's official web portal to all federal, state and local government web resources and services.